Wellsville, NY
on Thursday, December 7, 2017

Thursday
       
Previous Day Next Day
Daily Summary
 ActualAverage (KDSV)Record (KDSV)
Temperature
Mean Temperature °F °C °F °C  
Max Temperature 33°F 1°C 41°F 5°C 71°F 21°C (1960)
Min Temperature 26°F -3°C 25°F -3°C 6°F -14°C (1964)
Degree Days
Heating Degree Days 36    
Moisture
Dew Point 13°F -11°C   
Average Humidity 52    
Maximum Humidity 61    
Minimum Humidity 38    
Precipitation
Precipitation 0.00 in / 0.00 cm in / cm in / cm ()
Wind
Wind Speed 12 mph / 19 km/h   
Max Wind Speed 18 mph / 29 km/h   
Max Gust Speed 31 mph / 50 km/h   
Visibility 10 miles / 16 kilometers   
Events     
Averages and records for this station are not official NWS values.
Key: T is trace of precipitation, MM is missing value
Source: NWS Daily Summary
Seasonal Weather Averages
Time(EST)TemperatureDew PointHumidity Pressure Visibility Wind DirectionWind SpeedGust SpeedPrecipitationEvents Conditions
12:56 AM 33.1°F 0.6°C 16.0°F -8.9°C 50% 29.92 in / 1013.2 hPa 10.0 miles / 16.1 kilometers WSW 12.7 mph / 20.4 km/h 19.6 mph / 31.5 km/h N/A   Overcast
1:56 AM 30.9°F -0.6°C 15.1°F -9.4°C 52% 29.95 in / 1014.0 hPa 10.0 miles / 16.1 kilometers WSW 10.4 mph / 16.7 km/h 20.7 mph / 33.3 km/h N/A   Overcast
2:56 AM 28.9°F -1.7°C 14.0°F -10.0°C 54% 29.95 in / 1014.2 hPa 10.0 miles / 16.1 kilometers WSW 9.2 mph / 14.8 km/h - N/A   Scattered Clouds
3:56 AM 28.9°F -1.7°C 15.1°F -9.4°C 56% 29.95 in / 1014.0 hPa 10.0 miles / 16.1 kilometers WSW 11.5 mph / 18.5 km/h 18.4 mph / 29.6 km/h N/A   Overcast
4:56 AM 28.0°F -2.2°C 14.0°F -10.0°C 56% 29.95 in / 1014.2 hPa 10.0 miles / 16.1 kilometers SW 10.4 mph / 16.7 km/h - N/A   Overcast
5:56 AM 27.0°F -2.8°C 14.0°F -10.0°C 58% 29.95 in / 1014.2 hPa 10.0 miles / 16.1 kilometers SW 8.1 mph / 13.0 km/h - N/A   Mostly Cloudy
6:56 AM 27.0°F -2.8°C 12.9°F -10.6°C 56% 29.96 in / 1014.5 hPa 10.0 miles / 16.1 kilometers SW 13.8 mph / 22.2 km/h 18.4 mph / 29.6 km/h N/A   Overcast
7:56 AM 27.0°F -2.8°C 12.9°F -10.6°C 56% 29.96 in / 1014.6 hPa 10.0 miles / 16.1 kilometers WSW 12.7 mph / 20.4 km/h 21.9 mph / 35.2 km/h N/A   Overcast
8:56 AM 27.0°F -2.8°C 14.0°F -10.0°C 58% 29.97 in / 1014.9 hPa 10.0 miles / 16.1 kilometers SW 13.8 mph / 22.2 km/h 19.6 mph / 31.5 km/h N/A   Overcast
9:56 AM 28.9°F -1.7°C 14.0°F -10.0°C 54% 29.97 in / 1014.7 hPa 10.0 miles / 16.1 kilometers SW 10.4 mph / 16.7 km/h 20.7 mph / 33.3 km/h N/A   Overcast
10:56 AM 30.0°F -1.1°C 15.1°F -9.4°C 54% 29.96 in / 1014.6 hPa 10.0 miles / 16.1 kilometers SW 17.3 mph / 27.8 km/h 25.3 mph / 40.7 km/h N/A   Overcast
11:56 AM 33.1°F 0.6°C 15.1°F -9.4°C 48% 29.93 in / 1013.5 hPa 10.0 miles / 16.1 kilometers SW 11.5 mph / 18.5 km/h 19.6 mph / 31.5 km/h N/A   Mostly Cloudy
12:56 PM 33.1°F 0.6°C 12.0°F -11.1°C 42% 29.91 in / 1012.9 hPa 10.0 miles / 16.1 kilometers WSW 15.0 mph / 24.1 km/h 24.2 mph / 38.9 km/h N/A   Mostly Cloudy
1:56 PM 33.1°F 0.6°C 10.0°F -12.2°C 38% 29.90 in / 1012.4 hPa 10.0 miles / 16.1 kilometers WSW 13.8 mph / 22.2 km/h 27.6 mph / 44.4 km/h N/A   Overcast
2:56 PM 32.0°F 0.0°C 15.1°F -9.4°C 50% 29.90 in / 1012.4 hPa 10.0 miles / 16.1 kilometers WSW 18.4 mph / 29.6 km/h 25.3 mph / 40.7 km/h N/A   Overcast
3:56 PM 30.0°F -1.1°C 15.1°F -9.4°C 54% 29.92 in / 1013.1 hPa 10.0 miles / 16.1 kilometers WSW 9.2 mph / 14.8 km/h 18.4 mph / 29.6 km/h N/A   Scattered Clouds
4:56 PM 30.0°F -1.1°C 12.9°F -10.6°C 49% 29.94 in / 1013.6 hPa 10.0 miles / 16.1 kilometers West 9.2 mph / 14.8 km/h 17.3 mph / 27.8 km/h N/A   Mostly Cloudy
5:56 PM 28.9°F -1.7°C 9.0°F -12.8°C 43% 29.95 in / 1014.2 hPa 10.0 miles / 16.1 kilometers West 13.8 mph / 22.2 km/h 20.7 mph / 33.3 km/h N/A   Scattered Clouds
6:56 PM 28.0°F -2.2°C 10.0°F -12.2°C 47% 29.96 in / 1014.6 hPa 10.0 miles / 16.1 kilometers WSW 8.1 mph / 13.0 km/h - N/A   Overcast
7:56 PM 28.9°F -1.7°C 12.0°F -11.1°C 49% 29.98 in / 1015.1 hPa 10.0 miles / 16.1 kilometers West 10.4 mph / 16.7 km/h 25.3 mph / 40.7 km/h N/A   Overcast
8:56 PM 28.0°F -2.2°C 12.0°F -11.1°C 51% 29.99 in / 1015.5 hPa 10.0 miles / 16.1 kilometers West 9.2 mph / 14.8 km/h 18.4 mph / 29.6 km/h N/A   Overcast
9:56 PM 27.0°F -2.8°C 15.1°F -9.4°C 61% 30.00 in / 1015.7 hPa 10.0 miles / 16.1 kilometers West 16.1 mph / 25.9 km/h 31.1 mph / 50.0 km/h N/A   Overcast
10:56 PM 26.1°F -3.3°C 14.0°F -10.0°C 60% 30.00 in / 1015.8 hPa 10.0 miles / 16.1 kilometers West 9.2 mph / 14.8 km/h - N/A   Mostly Cloudy
11:56 PM 26.1°F -3.3°C 14.0°F -10.0°C 60% 30.00 in / 1015.7 hPa 10.0 miles / 16.1 kilometers West 8.1 mph / 13.0 km/h - N/A   Overcast